Regional Weather Roundup
Issued by NWS

Home | Current Version | Previous Version | Text Only | Print | Product List | Glossary Off
Versions: 1 2 3 4 5 6 7 8 9 10 11 12 13 14 15 16 17 18 19 20 21 22 23 24 25 26 27 28 29 30 31 32 33 34 35 36 37 38 39 40 41 42 43 44 45 46 47 48 49 50

000
ASUS43 KMKX 031414
RWRWI

WISCONSIN REGIONAL WEATHER ROUNDUP
NATIONAL WEATHER SERVICE MILWAUKEE/SULLIVAN WI
900 AM CDT WED JUN 03 2015

NOTE: "FAIR" INDICATES FEW OR NO CLOUDS BELOW 12,000 FEET WITH NO
SIGNIFICANT WEATHER AND/OR OBSTRUCTIONS TO VISIBILITY.

WIZ001-002-006>008-014>016-023>028-031500-
NORTHWEST WISCONSIN

CITY           SKY/WX    TMP DP  RH WIND       PRES   REMARKS
SUPERIOR ARPT  CLOUDY    50  48  92 NE8       29.88S
ASHLAND        CLOUDY    60  56  86 E3        29.90F
HAYWARD        CLOUDY    60  53  77 S9        29.90F
SIREN          CLOUDY    65  55  70 S14G20    29.87F
CUMBERLAND     CLOUDY    61  54  77 SE13      29.91F
RICE LAKE      CLOUDY    62  53  72 SE9       29.93S
CHETEK         CLOUDY    62  55  79 SE10      29.92F
LADYSMITH      CLOUDY    64  54  69 S10       29.96F
EAU CLAIRE     CLOUDY    65  54  67 S12       29.93S
MENOMONIE      CLOUDY    65  54  69 SE13      29.92S
NEW RICHMOND   CLOUDY    63  55  75 S12       29.90S
OSCEOLA        CLOUDY    64  56  75 S8        29.91S
$$

WIZ003>005-009-010-017-018-031500-
NORTH CENTRAL WISCONSIN

CITY           SKY/WX    TMP DP  RH WIND       PRES   REMARKS
MANITOWISH WTR CLOUDY    63  53  70 S10       29.97S
ARBOR VITAE    MOSUNNY   64  53  67 SW10G17   29.98S
WOODRUFF       MOSUNNY   64  53  67 SW10G17   29.98S
RHINELANDER    MOSUNNY   64  51  62 S10       30.00F
EAGLE RIVER    MOSUNNY   64  49  58 SW8       29.99F
LAND O LAKES   MOSUNNY   64  50  61 SW5       30.00F
PHILLIPS       PTSUNNY   64  53  68 S13G21    29.95F
TOMAHAWK       SUNNY     63  53  68 S5        29.99F
MEDFORD        SUNNY     62  54  75 S13       29.98F
MERRILL        SUNNY     63  52  67 S7        30.00F
$$

WIZ029-030-035-036-043>047-031500-
CENTRAL WISCONSIN

CITY           SKY/WX    TMP DP  RH WIND       PRES   REMARKS
WAUSAU         SUNNY     65  52  62 S9        29.99F
MOSINEE        SUNNY     63  52  67 S10       30.03F
MARSHFIELD     SUNNY     64  51  62 S14       30.00F
STEVENS POINT  SUNNY     64  49  60 S9        30.02F
WAUPACA        SUNNY     66  53  62 S9        30.04F
WAUTOMA        SUNNY     66  52  60 SE9G17    30.04F
WISC RAPIDS    SUNNY     66  49  54 SW8       30.02F
CAMP DOUGLAS   NOT AVBL
$$

WIZ011>013-019>022-031-037>040-048>050-031500-
NORTHEAST WISCONSIN

CITY           SKY/WX    TMP DP  RH WIND       PRES   REMARKS
ANTIGO         SUNNY     61  52  71 S9        30.03F
SHAWANO        SUNNY     66  52  60 S7        30.05F
OCONTO         SUNNY     64  52  64 SW8       30.06S
STURGEON BAY   SUNNY     61  48  63 S9        30.10R
GREEN BAY      SUNNY     65  53  65 S12       30.06F
MANITOWOC      SUNNY     56  49  77 SE7       30.09F
APPLETON       MOSUNNY   63  50  63 S12       30.07F
CLINTONVILLE   SUNNY     64  50  59 S10       30.04F
OSHKOSH        SUNNY     65  52  62 S14       30.05F
$$

WIZ032>034-041-042-053>061-031500-
SOUTHWEST WISCONSIN

CITY           SKY/WX    TMP DP  RH WIND       PRES   REMARKS
LA CROSSE      PTSUNNY   68  54  60 S17       29.96S
SPARTA         MOSUNNY   66  52  59 S10       29.99R
VIROQUA        PTSUNNY   64  53  68 S8        30.00R
BOSCOBEL       SUNNY     67  54  63 MISG      30.00S
PRAIRIE DU CHI MOSUNNY   66  52  61 SE7       29.99S
PLATTEVILLE    SUNNY     66  57  73 SE13      30.01S
$$

WIZ056-057-062-063-064-067-068-031500-
SOUTH CENTRAL WISCONSIN

CITY           SKY/WX    TMP DP  RH WIND       PRES   REMARKS
REEDSBURG      SUNNY     64  54  71 S8        30.01F
BARABOO/DELLS  SUNNY     64  53  67 S13       30.03S
LONE ROCK      SUNNY     67  53  61 SE9       30.01F
MINERAL POINT  SUNNY     64  55  72 S10       30.02S
MADISON        PTSUNNY   65  51  60 S12       30.03F
MIDDLETON      SUNNY     67  51  56 S13       30.04F
WATERTOWN      SUNNY     64  54  70 S6        30.06F
MONROE         SUNNY     64  55  72 SE13      30.04F
JANESVILLE     PTSUNNY   66  52  59 S14       30.05F
$$

WIZ051-052-058>065-066-070>072-031500-
SOUTHEAST WISCONSIN

CITY           SKY/WX    TMP DP  RH WIND       PRES   REMARKS
MILWAUKEE      MOSUNNY   64  52  64 S8        30.10R
WAUKESHA       SUNNY     61  50  67 S10       30.10S
MILWAUKEE/TIMM SUNNY     63  50  63 S7        30.10S
RACINE         SUNNY     62  48  60 S9        30.11S
BURLINGTON     SUNNY     64  52  67 S10       30.08F
KENOSHA        SUNNY     65  54  67 S6        30.09S
FOND DU LAC    SUNNY     65  53  65 S15       30.06F
SHEBOYGAN      SUNNY     61  52  72 S10       30.08F
WEST BEND      SUNNY     63  50  63 S9        30.08F
JUNEAU         SUNNY     63  52  67 SE13      30.07F
$$

LSZ147-162-031500-
LAKE SUPERIOR

STATION/POSITION TIME  TEMP    WIND        PRES    WAVE
                       AIR SEA DIR/SP/G            HT/PER
                 (UTC) (F)     (DEG/KT/KT) (MB)    (FT/S)
W MID LAKE BUOY  1350   46 37  160/  8/ 10   N/A     1
DEVILS ISLAND    1400   58     150/  9/ 11   N/A
PORT WING        1300   56     130/  4/  7   N/A
SAXON HARBOR     1300   57      CALM  / 11   N/A
$$

LMZ867-665-643>646-031500-
LAKE MICHIGAN

STATION/POSITION TIME  TEMP    WIND        PRES    WAVE
                       AIR SEA DIR/SP/G            HT/PER
                 (UTC) (F)     (DEG/KT/KT) (MB)    (FT/S)
CHAMBERS ISLAND  1300   59     160/  5/ 13   N/A
N MID LAKE BUOY  1350   42 37  190/ 12/ 14   N/A     1/ 3
NORTHPORT PIER   1300   56     150/  8/ 12   N/A
SISTER BAY       1318   64     180/ 14/ 17   N/A
ALGOMA LAKESHORE 1254          200/ 10/ 12   N/A
KEWAUNEE LAKESHO 1300   48     170/ 10/ 11   N/A
SHEBOYGAN LAKESH 1400   48     150/ 12/ 12   N/A
PORT WASHINGTON  1300   52     140/  3/  4   N/A
ATWATER BUOY     1300   50 49  150/  4/  4   N/A
MILWAUKEE LAKESH 1300   55      80/  2/  2   N/A
S MID LAKE BUOY  1350   45 39  130/  4/  4   N/A     0
KENOSHA   LAKESH 1400   53     160/  7/ 10   N/A
$$

TC  - TEMPERATURE IN CELSIUS
VSB - VISIBILITY IN STATUTE MILES
WCI - WIND CHILL INDEX
HX  - HEAT INDEX



USA.gov is the U.S. government's official web portal to all federal, state and local government web resources and services.